Lapse_Rate
5.8 5.6 5.7 5.8 5.9 5.9 5.8 5.5 5.5 5.5 5.5 5.2 5.3 5.7 5.9 6.4 6.5 6.1 6.0 6.2 6.1 5.9 6.2 6.3 6.6 6.3 6.3 6.5 6.4 6.3 5.8 6.4 6.8 7.0 7.1 6.8 6.5 6.7 6.6 6.6 6.7 6.9 7.1 7.2 7.0
5.8 5.8 5.9 5.9 6.0 6.0 5.9 5.6 5.6 5.4 5.7 5.2 5.6 5.9 6.2 6.5 6.4 6.5 6.3 6.2 6.3 6.2 6.0 6.2 6.3 6.2 6.2 6.4 6.3 6.1 5.8 6.5 6.6 6.4 6.5 6.7 6.8 6.7 6.4 6.4 6.6 6.7 7.0 7.3 7.0
5.9 5.9 6.0 6.0 6.1 6.1 5.9 5.7 5.6 5.7 5.7 5.4 5.8 6.2 6.4 6.4 6.7 6.8 6.2 6.2 6.4 6.2 6.2 6.1 6.1 5.9 6.0 6.1 5.9 6.0 6.1 6.6 6.4 6.4 6.2 6.6 6.7 6.7 6.5 6.5 6.6 6.6 6.8 7.1 7.2
6.1 5.9 6.0 6.0 6.1 6.0 5.9 5.7 5.6 5.9 5.6 5.6 6.0 6.3 6.4 6.3 6.7 6.6 6.3 6.2 6.0 5.9 5.6 6.0 6.0 6.1 5.9 6.0 6.1 5.9 6.1 6.4 6.5 6.4 6.2 6.3 6.5 6.5 6.6 6.4 6.6 6.7 6.8 6.7 7.0
6.2 6.1 6.1 6.1 6.0 5.9 5.9 5.6 5.7 5.9 5.7 5.8 6.4 6.3 6.5 6.5 6.8 6.3 6.1 5.8 5.4 5.2 5.4 6.1 6.5 6.7 6.5 6.5 6.3 6.0 5.8 6.3 6.4 6.5 6.5 6.2 6.5 6.7 6.6 6.8 6.6 6.9 7.0 6.8 6.7
6.2 6.3 6.2 6.1 6.0 6.0 5.9 5.8 6.0 5.8 5.9 5.9 6.5 6.3 6.5 6.7 6.3 6.0 5.8 5.5 5.3 5.3 5.7 6.6 6.8 6.6 6.6 6.6 6.3 6.0 6.1 6.2 6.2 6.3 6.4 6.2 6.2 6.6 6.6 6.6 7.1 6.8 6.9 6.6 6.4
6.2 6.3 6.1 5.9 5.8 5.9 5.9 5.9 6.1 5.9 6.0 6.2 6.3 6.5 6.2 6.5 6.3 6.1 5.7 5.3 4.9 5.1 5.8 6.5 6.5 6.5 6.4 6.6 6.4 6.1 6.2 6.0 5.9 6.1 5.9 6.1 6.2 6.2 6.8 6.5 6.6 6.4 6.3 6.5 6.4
6.3 6.2 6.1 6.0 5.8 5.9 6.0 6.0 6.0 6.0 6.1 6.0 6.4 6.5 6.4 6.4 6.2 5.7 5.3 5.4 5.1 5.5 6.1 6.3 6.2 6.2 6.3 6.5 6.5 6.2 6.1 5.8 5.8 5.9 6.0 5.9 5.8 6.0 6.4 6.2 6.4 6.3 5.9 6.5 6.4
6.3 6.2 6.1 5.9 5.7 5.8 6.0 6.0 6.0 5.8 5.8 6.1 6.7 6.5 6.2 6.0 5.7 5.6 5.2 5.1 5.3 5.8 6.3 6.1 6.0 6.0 6.1 6.4 6.4 6.2 6.0 5.8 5.7 5.6 5.4 5.5 5.9 6.9 6.9 6.6 6.5 6.7 6.4 6.5 6.3
6.2 6.1 6.3 6.1 5.9 5.9 6.0 6.0 6.1 5.9 5.9 5.9 6.4 6.7 6.4 6.0 5.6 5.3 5.1 5.0 5.5 5.8 5.9 5.8 5.8 5.7 5.7 6.1 6.0 5.8 5.8 5.7 5.5 5.7 5.7 5.9 6.3 6.6 6.6 6.2 6.4 6.4 6.8 6.5 6.6
6.3 6.2 6.3 6.2 6.0 5.8 5.9 5.9 6.0 6.2 5.8 5.9 6.1 6.3 6.3 6.0 5.6 5.1 5.1 4.9 5.3 5.8 5.9 5.6 5.5 5.6 5.4 5.5 5.6 5.3 5.2 5.4 5.3 5.2 5.7 6.3 6.3 6.0 6.3 6.4 6.4 6.0 6.1 6.4 6.0
6.3 6.2 6.2 6.1 6.0 5.9 5.7 6.0 5.9 6.0 5.9 6.0 6.0 6.1 6.1 5.9 5.4 5.0 4.9 5.0 5.3 6.1 5.7 5.5 5.9 5.3 5.1 5.3 5.3 5.3 5.5 5.4 5.3 5.5 6.1 6.1 5.6 5.8 5.9 6.2 6.5 6.6 6.3 6.4 6.2
6.3 6.2 6.0 5.9 6.0 6.0 5.8 5.7 5.9 6.0 5.7 5.8 6.0 6.0 6.0 5.9 5.6 5.3 4.9 4.8 4.9 5.4 5.9 5.6 5.3 5.5 5.9 5.9 5.7 5.3 5.2 5.1 5.0 5.9 6.2 6.3 5.9 5.6 5.5 5.5 5.6 6.1 6.2 6.3 6.3
6.3 6.3 6.1 5.8 5.8 5.9 6.0 5.9 5.9 5.8 5.4 5.6 5.8 5.8 5.7 5.6 5.6 5.1 4.7 4.8 4.7 5.2 5.7 5.4 5.2 5.7 6.1 5.9 5.8 5.6 5.6 5.4 5.5 5.6 6.0 6.1 5.6 6.0 5.8 5.7 5.8 5.7 5.7 6.0 6.4
6.4 6.4 6.3 6.1 5.9 6.0 6.1 6.1 6.2 6.0 3.3 5.5 5.6 5.6 5.9 5.6 5.3 5.1 4.7 4.3 4.6 5.1 5.6 5.2 5.1 5.6 5.9 5.8 5.8 5.5 5.3 5.3 5.5 5.3 5.6 5.6 5.6 5.8 6.0 6.1 5.9 5.7 5.6 5.6 5.6
6.4 6.3 6.3 6.2 6.1 6.0 6.0 6.1 6.3 6.0 5.6 5.6 5.7 5.7 5.7 5.5 5.5 4.9 4.8 4.6 4.5 4.8 5.4 5.2 5.2 5.4 5.3 5.6 5.6 5.6 5.5 5.3 5.4 5.6 5.0 5.6 5.5 5.9 5.8 5.6 5.7 5.5 5.4 5.5 5.6
6.1 6.2 6.2 6.1 6.1 6.0 5.9 6.1 6.0 6.1 5.8 5.7 5.8 5.8 5.7 5.6 5.3 5.0 4.9 4.8 4.7 4.7 5.4 5.2 5.2 5.5 5.4 5.6 5.5 5.7 5.6 5.0 4.3 4.1 3.9 5.5 5.6 5.2 5.0 5.0 5.2 5.7 5.7 5.6 5.6
6.1 6.1 6.1 6.0 6.0 6.0 5.9 5.9 6.0 6.0 6.0 5.8 5.8 5.8 5.6 5.5 5.2 4.7 4.6 4.4 4.3 4.5 5.1 5.1 5.2 5.4 5.1 5.2 5.4 5.3 4.8 4.7 3.3 4.4 4.2 5.6 5.5 5.2 5.1 5.1 5.2 5.2 5.5 5.6 5.8
6.0 6.0 6.0 6.1 6.1 6.1 5.9 5.9 6.3 6.0 5.9 5.8 5.8 5.8 5.7 5.5 5.1 4.5 4.4 4.3 4.1 4.2 4.9 4.7 5.0 5.0 4.9 5.0 5.4 5.1 4.9 4.8 4.9 4.2 4.0 5.1 5.1 5.0 5.0 4.9 5.4 5.5 5.5 5.6 5.8
5.9 6.0 6.1 6.1 6.0 6.0 6.0 6.1 6.0 5.9 5.9 5.8 5.8 5.8 5.6 5.5 5.1 4.6 4.4 4.2 4.0 4.1 4.4 4.7 4.6 5.0 4.9 4.9 5.1 5.0 4.7 4.7 4.8 3.4 3.4 4.7 4.6 4.5 5.3 5.6 5.4 5.1 5.0 5.2 5.6
5.8 5.9 6.4 6.2 6.2 5.9 6.1 6.0 6.1 5.9 5.9 5.7 5.7 5.7 5.7 5.6 5.3 4.7 4.4 4.1 4.1 4.1 4.4 4.8 4.7 5.1 4.7 4.8 5.0 4.9 4.7 4.7 4.4 4.6 3.5 3.7 4.2 4.3 4.5 4.9 5.0 4.5 4.5 4.6 4.9
5.6 5.7 6.3 6.2 6.2 6.2 6.3 6.2 6.1 6.0 6.0 5.8 5.7 5.7 5.7 5.6 5.3 4.7 4.5 4.1 4.2 4.3 4.5 4.9 4.8 4.8 4.7 4.8 4.8 4.6 4.2 4.4 4.4 4.4 4.4 4.5 4.7 4.4 4.6 4.8 4.6 4.2 4.2 4.4 4.7
5.6 5.5 5.7 5.8 6.1 6.3 6.3 6.3 6.2 6.0 5.9 5.8 5.7 5.7 5.7 5.6 5.4 4.9 4.5 4.3 4.1 4.3 4.4 4.8 4.9 4.8 4.8 4.9 5.1 4.7 4.2 4.3 4.5 4.2 4.1 4.0 4.6 4.5 4.6 4.5 4.0 3.9 3.9 3.8 3.8
5.3 5.3 5.7 5.8 6.1 6.3 6.2 6.2 6.2 6.1 6.0 5.8 5.8 5.7 5.7 5.6 5.5 5.2 4.7 4.5 4.3 4.2 4.3 4.7 5.2 4.9 4.8 4.8 5.4 5.3 4.6 4.3 4.5 4.2 4.4 4.5 4.7 4.9 4.5 4.2 3.9 3.8 4.0 3.7 3.7
5.5 5.6 5.6 5.7 6.4 6.3 6.1 6.3 6.5 6.0 6.2 6.1 6.0 5.9 5.6 5.6 5.6 5.4 4.9 4.6 4.4 4.3 4.4 4.7 5.3 5.2 5.2 5.4 5.9 6.0 6.0 5.3 4.7 4.2 3.9 4.7 4.7 4.7 4.6 4.2 4.2 4.4 4.1 4.1 4.2
5.5 5.5 5.8 5.8 6.0 5.9 6.0 6.5 6.4 6.2 6.4 6.3 6.1 5.9 5.7 5.5 5.4 5.4 5.1 4.7 4.5 4.5 4.4 4.6 5.0 5.3 5.7 5.7 5.9 6.3 6.4 5.7 5.0 4.7 4.6 4.5 5.0 5.0 4.6 4.5 4.6 4.2 4.1 4.3 4.6
5.6 5.6 5.7 5.6 5.8 5.7 6.1 6.3 6.1 6.1 6.2 6.3 6.0 5.9 5.7 5.2 5.5 5.3 5.1 4.9 4.8 4.5 4.4 4.3 4.8 5.1 5.5 5.5 6.0 6.5 6.7 6.3 5.9 5.6 5.4 5.4 5.1 5.2 4.6 4.6 4.7 4.9 5.3 5.1 5.1
Wind_Speed
11 12 13 14 15 15 15 13 11 11 11 12 14 15 14 12 9 11 10 10 15 24 21 8 4 7 2 2 2 3 2 2 3 4 1 5 6 6 5 3 3 4 3 5 17
10 11 12 13 13 13 14 14 12 11 11 13 14 15 14 10 2 12 13 22 22 23 8 8 7 8 3 2 2 3 3 6 2 4 3 5 5 5 5 5 5 4 6 12 16
10 11 12 12 13 13 12 13 14 13 12 14 16 16 17 4 4 5 21 24 20 21 6 3 3 2 3 3 3 2 4 1 5 5 5 4 6 4 2 3 2 3 6 8 15
9 10 11 12 12 13 13 11 12 12 12 13 15 16 10 3 4 5 23 20 15 15 8 7 6 5 4 4 5 2 3 3 5 7 4 4 6 6 3 0 5 4 5 6 7
9 10 12 13 13 13 13 12 13 12 10 12 14 16 3 6 2 10 17 14 11 7 7 6 6 4 3 4 6 4 6 6 6 8 5 5 3 2 5 6 8 7 5 4 6
9 10 12 14 15 14 14 14 13 10 8 11 16 11 4 7 8 12 16 10 7 6 6 6 2 1 2 2 2 4 5 9 3 4 5 2 1 4 4 5 9 5 2 1 4
8 10 12 13 15 15 15 13 10 8 7 10 13 4 9 4 4 13 12 5 5 4 5 2 2 4 2 4 4 4 6 7 5 3 2 2 4 4 3 6 6 5 3 4 6
8 10 12 14 16 15 15 13 9 7 7 10 9 3 4 3 8 6 9 6 6 3 2 4 2 1 1 4 5 4 3 5 6 8 5 2 2 6 8 6 5 2 3 6 8
7 10 12 15 17 17 16 10 5 9 7 7 4 5 3 7 7 8 4 6 7 4 3 3 2 3 5 3 4 7 2 4 7 6 6 6 5 5 6 5 5 5 4 3 6
7 10 12 16 19 20 8 2 3 4 5 2 1 5 5 5 6 7 5 4 3 8 5 6 5 3 5 6 1 4 4 4 4 8 6 6 5 11 8 3 5 5 5 5 7
7 9 12 15 18 18 4 3 5 6 10 4 1 2 3 7 3 6 5 7 5 5 5 6 8 5 5 3 2 1 2 3 3 3 5 5 7 9 13 8 7 5 6 8 9
7 9 11 12 13 18 5 4 1 2 7 3 1 3 2 0 3 7 7 6 6 6 5 6 6 4 3 1 2 3 3 4 3 5 3 6 6 5 13 16 18 17 15 15 15
6 9 12 14 6 5 5 3 3 0 5 2 1 2 4 3 3 6 5 4 5 7 7 5 5 5 4 6 6 4 4 4 3 7 2 7 1 5 3 11 15 17 13 15 15
6 7 11 12 5 2 3 7 6 3 5 8 6 3 2 1 4 2 3 3 6 5 5 2 5 5 4 3 4 2 2 2 4 4 2 4 2 3 6 7 14 15 15 15 16
3 5 8 9 4 3 1 6 3 3 4 3 7 4 8 4 2 6 2 5 3 5 4 3 7 6 4 4 2 2 5 3 2 2 3 4 4 4 6 10 19 15 14 13 12
2 4 5 4 3 1 4 3 3 6 4 4 4 6 5 6 4 3 6 6 1 3 4 2 4 3 3 4 2 5 3 5 4 3 3 3 3 4 5 7 15 16 16 16 15
2 3 4 3 1 5 3 3 5 5 3 4 1 3 1 5 6 6 4 8 4 5 7 6 5 5 3 5 4 6 5 3 5 5 3 2 2 1 4 3 6 14 17 17 16
2 2 6 4 4 3 3 5 4 2 5 3 1 2 4 5 4 7 3 5 5 5 3 4 6 6 8 2 2 4 3 2 4 2 4 3 1 3 1 1 6 8 16 18 18
6 2 2 4 4 3 5 3 6 6 5 7 3 5 5 2 2 3 3 2 2 2 4 4 5 4 3 4 2 3 4 3 3 2 1 3 2 4 4 6 11 15 16 16 17
3 1 1 6 4 4 4 5 2 3 3 3 4 3 3 1 2 3 1 2 1 2 3 2 4 2 5 3 3 3 1 3 3 3 3 3 2 3 13 16 16 16 14 15 15
3 2 1 4 3 4 3 6 4 5 2 3 4 4 3 4 3 2 1 1 1 3 6 2 3 6 3 4 3 4 3 2 1 2 2 3 2 4 7 9 10 11 12 13 15
3 1 3 1 3 2 1 4 3 2 1 1 2 2 4 5 4 1 2 2 2 2 2 2 2 4 7 5 4 1 2 2 3 4 1 2 3 3 4 5 6 8 10 12 14
3 1 2 1 3 1 3 2 3 3 3 3 2 1 1 3 3 2 2 1 2 2 3 4 1 3 6 3 4 0 1 1 1 0 4 2 4 1 2 3 5 9 12 11 12
3 2 2 2 1 6 4 3 2 1 3 3 3 2 3 2 2 2 2 0 1 1 7 5 3 5 5 5 0 3 3 2 2 2 2 4 4 3 2 4 7 7 7 8 8
1 3 2 3 3 4 4 7 4 5 3 4 2 5 5 2 2 3 3 1 2 3 3 2 2 3 7 8 5 7 8 7 6 3 4 4 5 5 5 5 7 7 6 6 10
5 4 1 3 2 6 5 7 10 4 7 5 5 7 6 5 6 7 5 3 3 2 2 1 3 3 4 4 6 9 8 7 5 3 7 4 6 7 3 5 5 6 5 5 7
2 2 1 5 3 4 5 6 10 9 5 3 8 5 6 7 5 3 3 4 3 5 4 2 2 3 5 2 5 4 6 10 4 6 5 7 7 5 5 8 6 5 4 4 5
Wind_Direction
21 22 24 24 18 11 15 15 9 1 353 347 356 359 347 344 38 40 37 336 341 337 333 313 13 1 83 43 22 106 64 229 267 175 197 336 10 329 293 127 47 20 138 142 129
18 22 26 21 17 12 7 7 5 4 353 359 357 346 333 314 79 52 348 342 337 343 345 358 349 353 18 16 34 118 144 222 249 357 26 334 11 322 13 25 23 38 29 123 135
20 20 21 17 7 360 360 358 359 352 355 358 353 336 328 254 78 342 341 343 343 343 318 274 290 341 46 344 7 152 196 234 2 355 336 305 347 333 15 26 19 301 164 143 150
20 16 14 7 2 354 354 355 347 338 355 354 345 337 325 327 61 285 335 348 352 357 12 7 15 28 47 10 340 311 40 23 340 331 2 356 332 342 19 228 305 252 176 129 149
15 9 4 358 355 353 351 351 343 335 350 353 345 346 17 44 58 300 330 339 350 3 23 21 35 10 50 330 342 13 333 322 322 299 319 323 359 320 332 8 36 82 100 149 153
9 6 356 351 348 349 346 346 341 341 353 356 358 356 71 73 266 308 329 338 359 3 357 35 38 316 306 324 50 301 290 293 292 272 294 307 280 27 27 10 18 87 104 225 209
1 1 352 347 343 346 340 344 342 355 359 8 5 13 58 127 300 318 332 318 322 329 343 346 348 51 334 334 359 288 342 334 9 324 247 171 291 188 321 1 16 357 329 272 254
355 355 348 344 339 337 333 328 330 344 1 9 355 47 76 301 312 336 334 325 331 323 285 285 288 239 45 305 12 2 50 28 359 24 339 29 322 298 31 13 322 303 276 284 282
349 349 346 342 337 334 324 306 326 329 343 358 56 79 6 335 359 321 341 311 310 315 332 306 24 67 10 25 21 15 36 17 338 49 355 49 276 298 359 11 339 335 343 330 293
343 345 347 346 339 339 351 332 358 50 0 354 65 65 25 310 305 313 308 332 326 335 2 34 42 56 16 40 83 333 12 352 335 343 357 353 303 304 315 303 270 291 319 337 326
339 345 350 351 344 354 9 16 17 0 42 60 302 102 302 298 288 318 340 343 2 47 32 3 59 20 334 19 79 350 18 318 269 343 343 339 315 322 343 7 342 341 2 7 356
335 345 347 348 344 6 52 61 49 201 84 10 353 345 260 335 343 340 15 41 16 32 4 21 41 322 311 310 34 29 7 348 296 333 355 352 316 355 46 44 48 45 33 19 13
333 344 345 340 349 39 62 30 334 273 89 360 348 329 314 12 11 324 29 1 13 33 12 71 320 316 337 36 18 44 60 350 293 315 7 347 60 30 50 41 38 35 25 23 15
323 347 350 344 48 351 48 342 356 359 75 314 349 1 335 291 50 353 39 85 23 27 7 345 317 356 355 60 11 27 271 275 309 19 337 24 204 19 350 17 29 22 16 5 2
302 341 3 31 159 71 238 336 17 53 23 313 317 300 315 60 280 2 17 38 46 342 56 286 343 343 359 334 330 299 317 298 251 207 50 5 70 279 10 353 355 358 2 357 356
279 349 1 25 34 35 334 43 58 44 256 337 319 356 11 354 6 346 31 33 97 29 10 304 288 303 293 308 53 296 18 42 36 50 42 294 105 339 11 347 341 341 352 351 349
251 25 67 84 103 342 348 46 36 119 332 293 0 14 11 342 354 29 37 32 40 36 9 343 326 315 331 328 18 2 45 2 9 15 203 37 48 345 348 2 341 334 341 347 347
173 5 46 63 34 21 42 43 89 233 222 263 15 70 69 350 5 2 55 28 24 61 60 50 338 4 332 18 341 10 13 76 173 343 288 325 276 175 31 126 352 352 347 344 343
139 351 18 5 35 74 72 35 212 200 169 157 63 75 337 2 16 46 68 4 191 135 114 22 287 322 351 314 33 333 46 330 106 34 13 275 78 305 9 10 360 359 356 347 343
104 56 313 341 24 64 79 244 205 209 128 81 139 150 169 302 48 10 38 205 323 89 134 220 304 215 295 318 336 93 264 22 6 32 328 310 333 312 347 344 348 356 353 341 342
61 38 282 8 65 46 167 218 222 240 130 121 188 136 176 164 144 271 228 225 69 76 102 95 115 292 21 15 5 8 22 0 296 143 159 304 282 357 341 336 343 346 339 344 345
118 10 320 42 66 71 171 198 197 155 139 88 123 133 157 165 143 222 236 199 99 111 77 86 126 272 244 267 291 14 155 95 101 306 266 187 260 1 348 344 331 336 336 343 348
131 141 326 70 140 249 295 265 211 136 210 176 178 193 188 151 98 197 246 158 46 140 156 153 6 341 340 351 352 158 187 129 136 261 235 155 269 152 1 353 339 336 338 336 341
120 139 356 40 114 135 155 218 210 222 178 174 146 125 90 37 47 164 244 308 328 136 108 105 157 189 208 222 136 287 200 200 214 124 272 235 283 274 301 314 329 323 323 317 328
110 226 214 191 234 177 155 157 150 179 226 190 200 210 173 150 52 207 223 240 53 124 83 94 210 188 257 266 260 262 263 244 207 202 205 254 210 242 224 252 283 296 307 331 338
142 155 204 114 120 129 193 217 177 177 160 218 214 191 191 178 189 188 170 192 187 63 88 57 281 41 290 253 264 279 264 240 221 241 250 238 259 216 195 253 272 280 293 297 319
159 72 114 137 157 146 214 198 200 150 222 187 192 137 206 229 188 109 121 105 141 157 171 148 103 47 270 308 318 333 221 197 202 227 215 216 231 140 214 251 260 264 275 286 329